Wind From: 11-12-2017 07:30 Until: 12-12-2017 06:00 warning for: Wind Level: Orange info button

Power and phone distribution networks may be disrupted for relatively long periods., Roofs and chimneys can be damaged. , Tree branches may break. , Vehicles can be deported. , Traffic may be disrupted, particularly on secondary roads in forest areas. Limit your trips. , Limit your speed in highway driving, especially if you drive a vehicle or hitch sensitive to wind. , Do not go for walks in forests or along the coast., In town, be vigilant against possible falling objects., Do not work on roofs and do not touch any electrical line fallen on the ground., Store or secure sensitive objects to wind or likely to be damaged., Always install power generators outside buildings. 


Meteo18 Weather Cam more information Meteo18 Weather Cam


Thunder radar more information blitzortung!


Rain radar more information rain snow radar


Visit our other weather sites:

Template documentation
and downloads

And another site



Weather Underground History page Text

Daily Summary for December 3, 2017 Units:  Metric    English   Both
« Previous Day
Next Day »
Daily Weekly Monthly Yearly Custom
  High: Low: Average:
Temperature: 1.3 °C -2.8 °C -1.1 °C
Dew Point: 0.9 °C -3.7 °C -2 °C
Humidity: 97 % 91 % 94 %
Wind Speed: 17.7 km/h 0.0 km/h 4.1 km/h
Wind Gust: 19.3 km/h - -
Wind:- - SW
Pressure: 1031.4 hPa 1028.0 hPa -
Precipitation: 0.0 mm    
Historical Graphs
 
 
Tabular Data for December 3, 2017
Time Temperature Dew Point Pressure Wind Wind Speed Wind Gust Humidity Rainfall Rate (Hourly)
00:07 -1.0 °C -2.1 °C 1028.0 hPa North 17.7 km/h 17.7 km/h 92 % 0.0 mm
00:12 -1.0 °C -2.1 °C 1028.0 hPa NNW 6.4 km/h 17.7 km/h 92 % 0.0 mm
00:17 -1.0 °C -2.1 °C 1028.0 hPa NNW 9.7 km/h 17.7 km/h 92 % 0.0 mm
00:32 -1.1 °C -2.2 °C 1028.3 hPa North 9.7 km/h 19.3 km/h 92 % 0.0 mm
00:37 -1.1 °C -2.2 °C 1028.3 hPa NE 8.0 km/h 19.3 km/h 92 % 0.0 mm
00:42 -1.2 °C -2.3 °C 1028.3 hPa North 12.9 km/h 16.1 km/h 92 % 0.0 mm
00:47 -1.2 °C -2.3 °C 1028.3 hPa NNE 11.3 km/h 16.1 km/h 92 % 0.0 mm
00:52 -1.2 °C -2.3 °C 1028.3 hPa NW 8.0 km/h 16.1 km/h 92 % 0.0 mm
01:12 -1.3 °C -2.3 °C 1028.3 hPa NNW 8.0 km/h 17.7 km/h 93 % 0.0 mm
01:22 -1.3 °C -2.3 °C 1028.3 hPa North 8.0 km/h 19.3 km/h 93 % 0.0 mm
01:27 -1.3 °C -2.3 °C 1028.3 hPa North 4.8 km/h 19.3 km/h 93 % 0.0 mm
01:32 -1.3 °C -2.3 °C 1028.3 hPa North 8.0 km/h 16.1 km/h 93 % 0.0 mm
01:37 -1.3 °C -2.3 °C 1028.3 hPa NNW 3.2 km/h 16.1 km/h 93 % 0.0 mm
01:52 -1.4 °C -2.4 °C 1028.3 hPa NNW 4.8 km/h 11.3 km/h 93 % 0.0 mm
02:02 -1.4 °C -2.4 °C 1028.3 hPa NNE 3.2 km/h 12.9 km/h 93 % 0.0 mm
02:12 -1.4 °C -2.4 °C 1028.3 hPa NNW 3.2 km/h 12.9 km/h 93 % 0.0 mm
02:17 -1.4 °C -2.4 °C 1028.0 hPa North 3.2 km/h 9.7 km/h 93 % 0.0 mm
02:22 -1.4 °C -2.4 °C 1028.0 hPa Calm   9.7 km/h 93 % 0.0 mm
02:27 -1.4 °C -2.4 °C 1028.0 hPa North 3.2 km/h 9.7 km/h 93 % 0.0 mm
02:32 -1.4 °C -2.4 °C 1028.3 hPa NNW 1.6 km/h 4.8 km/h 93 % 0.0 mm
02:37 -1.4 °C -2.5 °C 1028.0 hPa Calm   3.2 km/h 92 % 0.0 mm
02:52 -1.6 °C -2.7 °C 1028.3 hPa Calm   9.7 km/h 92 % 0.0 mm
02:57 -1.6 °C -2.7 °C 1028.3 hPa North 3.2 km/h 9.7 km/h 92 % 0.0 mm
03:12 -1.6 °C -2.7 °C 1028.7 hPa NNW 3.2 km/h 11.3 km/h 92 % 0.0 mm
03:17 -1.6 °C -2.7 °C 1028.3 hPa NW 1.6 km/h 11.3 km/h 92 % 0.0 mm
03:22 -1.6 °C -2.7 °C 1028.7 hPa NNW 1.6 km/h 11.3 km/h 92 % 0.0 mm
03:27 -1.6 °C -2.7 °C 1028.7 hPa NNE 3.2 km/h 8.0 km/h 92 % 0.0 mm
03:32 -1.6 °C -2.7 °C 1028.3 hPa NNW 3.2 km/h 6.4 km/h 92 % 0.0 mm
03:37 -1.7 °C -2.8 °C 1028.3 hPa NNW 3.2 km/h 11.3 km/h 92 % 0.0 mm
03:42 -1.7 °C -2.8 °C 1028.3 hPa NNW 3.2 km/h 11.3 km/h 92 % 0.0 mm
03:47 -1.7 °C -2.8 °C 1028.3 hPa NW 1.6 km/h 11.3 km/h 92 % 0.0 mm
03:52 -1.8 °C -2.9 °C 1028.3 hPa NNW 1.6 km/h 11.3 km/h 92 % 0.0 mm
03:57 -1.8 °C -2.9 °C 1028.3 hPa NNW 1.6 km/h 11.3 km/h 92 % 0.0 mm
04:02 -1.8 °C -2.9 °C 1028.3 hPa NNW 1.6 km/h 9.7 km/h 92 % 0.0 mm
04:07 -1.7 °C -2.8 °C 1028.7 hPa Calm   9.7 km/h 92 % 0.0 mm
04:12 -1.7 °C -2.8 °C 1028.7 hPa Calm   3.2 km/h 92 % 0.0 mm
04:17 -1.7 °C -2.8 °C 1028.7 hPa WNW 1.6 km/h 3.2 km/h 92 % 0.0 mm
04:22 -1.8 °C -2.9 °C 1028.7 hPa Calm   8.0 km/h 92 % 0.0 mm
04:32 -1.9 °C -3.0 °C 1028.7 hPa WNW 8.0 km/h 8.0 km/h 92 % 0.0 mm
04:42 -2.1 °C -3.2 °C 1028.3 hPa West 1.6 km/h 8.0 km/h 92 % 0.0 mm
04:47 -2.1 °C -3.2 °C 1028.3 hPa West 1.6 km/h 8.0 km/h 92 % 0.0 mm
04:52 -2.2 °C -3.2 °C 1028.3 hPa West 3.2 km/h 6.4 km/h 93 % 0.0 mm
04:57 -2.2 °C -3.3 °C 1028.7 hPa Calm   8.0 km/h 92 % 0.0 mm
05:02 -2.2 °C -3.2 °C 1028.7 hPa WNW 1.6 km/h 8.0 km/h 93 % 0.0 mm
05:12 -2.2 °C -3.2 °C 1028.7 hPa Calm   4.8 km/h 93 % 0.0 mm
05:17 -2.2 °C -3.2 °C 1028.3 hPa Calm   3.2 km/h 93 % 0.0 mm
05:22 -2.2 °C -3.2 °C 1028.7 hPa Calm     93 % 0.0 mm
05:27 -2.2 °C -3.2 °C 1028.7 hPa Calm   1.6 km/h 93 % 0.0 mm
05:37 -2.2 °C -3.2 °C 1028.7 hPa Calm   4.8 km/h 93 % 0.0 mm
05:42 -2.2 °C -3.2 °C 1028.7 hPa Calm   4.8 km/h 93 % 0.0 mm
05:47 -2.2 °C -3.2 °C 1028.7 hPa Calm   4.8 km/h 93 % 0.0 mm
05:52 -2.2 °C -3.2 °C 1028.7 hPa WNW 3.2 km/h 3.2 km/h 93 % 0.0 mm
06:07 -2.1 °C -3.1 °C 1029.0 hPa Calm   4.8 km/h 93 % 0.0 mm
06:12 -2.1 °C -3.1 °C 1028.7 hPa NW 1.6 km/h 3.2 km/h 93 % 0.0 mm
06:17 -2.1 °C -3.1 °C 1028.7 hPa Calm   3.2 km/h 93 % 0.0 mm
06:27 -2.2 °C -3.2 °C 1028.7 hPa Calm   1.6 km/h 93 % 0.0 mm
06:32 -2.2 °C -3.2 °C 1029.0 hPa Calm   1.6 km/h 93 % 0.0 mm
06:42 -2.3 °C -3.3 °C 1029.0 hPa Calm   3.2 km/h 93 % 0.0 mm
07:02 -2.4 °C -3.4 °C 1029.0 hPa Calm   3.2 km/h 93 % 0.0 mm
07:17 -2.6 °C -3.6 °C 1029.0 hPa Calm   4.8 km/h 93 % 0.0 mm
07:22 -2.6 °C -3.6 °C 1029.0 hPa Calm   4.8 km/h 93 % 0.0 mm
07:32 -2.6 °C -3.6 °C 1029.3 hPa Calm   3.2 km/h 93 % 0.0 mm
07:42 -2.6 °C -3.6 °C 1029.3 hPa WSW 3.2 km/h 4.8 km/h 93 % 0.0 mm
07:47 -2.6 °C -3.6 °C 1029.3 hPa Calm   4.8 km/h 93 % 0.0 mm
07:52 -2.6 °C -3.6 °C 1029.3 hPa Calm   4.8 km/h 93 % 0.0 mm
07:57 -2.6 °C -3.6 °C 1029.3 hPa Calm   4.8 km/h 93 % 0.0 mm
08:02 -2.6 °C -3.6 °C 1029.3 hPa Calm   3.2 km/h 93 % 0.0 mm
08:07 -2.6 °C -3.6 °C 1029.3 hPa Calm   3.2 km/h 93 % 0.0 mm
08:17 -2.6 °C -3.6 °C 1029.3 hPa Calm   3.2 km/h 93 % 0.0 mm
08:27 -2.6 °C -3.6 °C 1029.3 hPa South 1.6 km/h 3.2 km/h 93 % 0.0 mm
08:42 -2.6 °C -3.4 °C 1029.7 hPa SSW 1.6 km/h 8.0 km/h 94 % 0.0 mm
08:52 -2.6 °C -3.4 °C 1029.7 hPa Calm   6.4 km/h 94 % 0.0 mm
08:57 -2.6 °C -3.4 °C 1029.7 hPa Calm   6.4 km/h 94 % 0.0 mm
09:07 -2.6 °C -3.4 °C 1030.0 hPa Calm   1.6 km/h 94 % 0.0 mm
09:17 -2.4 °C -3.2 °C 1030.0 hPa West 4.8 km/h 4.8 km/h 94 % 0.0 mm
09:22 -2.5 °C -3.3 °C 1030.0 hPa Calm   6.4 km/h 94 % 0.0 mm
09:32 -2.7 °C -3.5 °C 1030.0 hPa WNW 1.6 km/h 8.0 km/h 94 % 0.0 mm
09:37 -2.7 °C -3.5 °C 1030.0 hPa West 1.6 km/h 8.0 km/h 94 % 0.0 mm
09:42 -2.6 °C -3.4 °C 1030.0 hPa Calm   8.0 km/h 94 % 0.0 mm
09:47 -2.6 °C -3.4 °C 1030.0 hPa West 1.6 km/h 8.0 km/h 94 % 0.0 mm
09:57 -2.7 °C -3.7 °C 1030.0 hPa SW 3.2 km/h 12.9 km/h 93 % 0.0 mm
10:02 -2.8 °C -3.6 °C 1030.0 hPa West 4.8 km/h 12.9 km/h 94 % 0.0 mm
10:07 -2.8 °C -3.6 °C 1030.4 hPa SW 1.6 km/h 11.3 km/h 94 % 0.0 mm
10:12 -2.7 °C -3.5 °C 1030.4 hPa WSW 8.0 km/h 12.9 km/h 94 % 0.0 mm
10:17 -2.7 °C -3.5 °C 1030.0 hPa SW 3.2 km/h 12.9 km/h 94 % 0.0 mm
10:22 -2.5 °C -3.3 °C 1030.4 hPa SW 4.8 km/h 12.9 km/h 94 % 0.0 mm
10:32 -2.6 °C -3.4 °C 1030.4 hPa SW 9.7 km/h 12.9 km/h 94 % 0.0 mm
10:37 -2.6 °C -3.4 °C 1030.4 hPa WSW 3.2 km/h 12.9 km/h 94 % 0.0 mm
10:42 -2.7 °C -3.5 °C 1030.4 hPa SW 8.0 km/h 9.7 km/h 94 % 0.0 mm
10:52 -2.7 °C -3.5 °C 1030.4 hPa SSW 4.8 km/h 11.3 km/h 94 % 0.0 mm
10:57 -2.6 °C -3.4 °C 1030.4 hPa SW 6.4 km/h 11.3 km/h 94 % 0.0 mm
11:02 -2.6 °C -3.4 °C 1030.4 hPa SSW 6.4 km/h 12.9 km/h 94 % 0.0 mm
11:07 -2.4 °C -3.2 °C 1030.4 hPa SW 1.6 km/h 12.9 km/h 94 % 0.0 mm
11:12 -2.3 °C -3.1 °C 1030.4 hPa SSW 8.0 km/h 11.3 km/h 94 % 0.0 mm
11:17 -2.2 °C -3.0 °C 1030.4 hPa WSW 1.6 km/h 11.3 km/h 94 % 0.0 mm
11:27 -2.2 °C -3.2 °C 1030.4 hPa SW 3.2 km/h 11.3 km/h 93 % 0.0 mm
11:32 -2.2 °C -3.2 °C 1030.4 hPa SSW 3.2 km/h 12.9 km/h 93 % 0.0 mm
11:37 -2.2 °C -3.2 °C 1030.4 hPa Calm   12.9 km/h 93 % 0.0 mm
11:42 -2.1 °C -3.1 °C 1030.4 hPa WSW 9.7 km/h 12.9 km/h 93 % 0.0 mm
11:47 -2.1 °C -3.1 °C 1030.4 hPa SW 4.8 km/h 11.3 km/h 93 % 0.0 mm
11:52 -2.1 °C -3.1 °C 1030.4 hPa SW 8.0 km/h 11.3 km/h 93 % 0.0 mm
11:57 -2.1 °C -3.1 °C 1030.4 hPa SW 3.2 km/h 12.9 km/h 93 % 0.0 mm
12:02 -1.9 °C -2.9 °C 1030.4 hPa SW 4.8 km/h 12.9 km/h 93 % 0.0 mm
12:12 -1.9 °C -3.0 °C 1030.4 hPa SW 6.4 km/h 11.3 km/h 92 % 0.0 mm
12:17 -1.9 °C -3.0 °C 1030.4 hPa SSW 4.8 km/h 11.3 km/h 92 % 0.0 mm
12:22 -1.8 °C -2.9 °C 1030.4 hPa SW 9.7 km/h 11.3 km/h 92 % 0.0 mm
12:27 -1.7 °C -2.7 °C 1030.4 hPa SSW 6.4 km/h 11.3 km/h 93 % 0.0 mm
12:32 -1.7 °C -2.8 °C 1030.0 hPa SSW 6.4 km/h 11.3 km/h 92 % 0.0 mm
12:42 -1.6 °C -2.7 °C 1030.0 hPa SSW 4.8 km/h 12.9 km/h 92 % 0.0 mm
12:47 -1.6 °C -2.7 °C 1030.0 hPa SSW 4.8 km/h 11.3 km/h 92 % 0.0 mm
12:52 -1.6 °C -2.7 °C 1030.0 hPa South 6.4 km/h 9.7 km/h 92 % 0.0 mm
12:57 -1.6 °C -2.7 °C 1030.0 hPa SSW 9.7 km/h 12.9 km/h 92 % 0.0 mm
13:02 -1.6 °C -2.7 °C 1030.0 hPa SSW 8.0 km/h 12.9 km/h 92 % 0.0 mm
13:07 -1.6 °C -2.7 °C 1029.7 hPa SW 6.4 km/h 12.9 km/h 92 % 0.0 mm
13:17 -1.5 °C -2.6 °C 1029.7 hPa SW 9.7 km/h 11.3 km/h 92 % 0.0 mm
13:22 -1.4 °C -2.4 °C 1029.7 hPa South 4.8 km/h 11.3 km/h 93 % 0.0 mm
13:27 -1.4 °C -2.5 °C 1029.7 hPa SSW 4.8 km/h 11.3 km/h 92 % 0.0 mm
13:32 -1.5 °C -2.6 °C 1029.7 hPa SW 3.2 km/h 12.9 km/h 92 % 0.0 mm
13:42 -1.4 °C -2.5 °C 1029.3 hPa SW 4.8 km/h 12.9 km/h 92 % 0.0 mm
13:47 -1.4 °C -2.5 °C 1029.3 hPa SW 9.7 km/h 14.5 km/h 92 % 0.0 mm
13:52 -1.3 °C -2.4 °C 1029.3 hPa SW 8.0 km/h 14.5 km/h 92 % 0.0 mm
14:02 -1.3 °C -2.4 °C 1029.7 hPa SW 11.3 km/h 12.9 km/h 92 % 0.0 mm
14:12 -1.2 °C -2.3 °C 1029.7 hPa SSW 8.0 km/h 11.3 km/h 92 % 0.0 mm
14:17 -1.1 °C -2.2 °C 1029.7 hPa WSW 6.4 km/h 11.3 km/h 92 % 0.0 mm
14:22 -1.0 °C -2.1 °C 1029.3 hPa SSW 11.3 km/h 11.3 km/h 92 % 0.0 mm
14:32 -1.0 °C -2.1 °C 1029.7 hPa SW 4.8 km/h 14.5 km/h 92 % 0.0 mm
14:37 -0.9 °C -2.0 °C 1029.7 hPa SW 11.3 km/h 14.5 km/h 92 % 0.0 mm
14:42 -1.0 °C -2.3 °C 1029.7 hPa SW 6.4 km/h 12.9 km/h 91 % 0.0 mm
14:47 -1.0 °C -2.3 °C 1029.7 hPa SW 8.0 km/h 12.9 km/h 91 % 0.0 mm
14:52 -0.9 °C -2.2 °C 1029.3 hPa SW 12.9 km/h 12.9 km/h 91 % 0.0 mm
14:57 -0.8 °C -2.1 °C 1029.3 hPa SW 9.7 km/h 12.9 km/h 91 % 0.0 mm
15:07 -0.8 °C -2.1 °C 1029.3 hPa SW 6.4 km/h 14.5 km/h 91 % 0.0 mm
15:12 -0.8 °C -2.1 °C 1029.3 hPa SW 12.9 km/h 14.5 km/h 91 % 0.0 mm
15:17 -0.7 °C -2.0 °C 1029.3 hPa SW 11.3 km/h 14.5 km/h 91 % 0.0 mm
15:22 -0.7 °C -2.0 °C 1029.7 hPa SW 6.4 km/h 16.1 km/h 91 % 0.0 mm
15:32 -0.7 °C -1.8 °C 1029.7 hPa SW 12.9 km/h 16.1 km/h 92 % 0.0 mm
15:37 -0.7 °C -1.8 °C 1029.7 hPa SW 6.4 km/h 16.1 km/h 92 % 0.0 mm
15:42 -0.7 °C -1.8 °C 1029.7 hPa SW 8.0 km/h 14.5 km/h 92 % 0.0 mm
15:47 -0.7 °C -1.8 °C 1029.7 hPa SW 6.4 km/h 14.5 km/h 92 % 0.0 mm
15:52 -0.6 °C -1.7 °C 1029.7 hPa SW 6.4 km/h 14.5 km/h 92 % 0.0 mm
15:57 -0.6 °C -1.7 °C 1029.7 hPa SW 6.4 km/h 11.3 km/h 92 % 0.0 mm
16:02 -0.6 °C -1.7 °C 1029.7 hPa SW 3.2 km/h 11.3 km/h 92 % 0.0 mm
16:12 -0.5 °C -1.6 °C 1029.7 hPa SW 8.0 km/h 11.3 km/h 92 % 0.0 mm
16:17 -0.6 °C -1.7 °C 1029.7 hPa SSW 9.7 km/h 11.3 km/h 92 % 0.0 mm
16:22 -0.5 °C -1.6 °C 1029.3 hPa SSW 6.4 km/h 11.3 km/h 92 % 0.0 mm
16:27 -0.4 °C -1.5 °C 1029.3 hPa SW 9.7 km/h 12.9 km/h 92 % 0.0 mm
16:32 -0.4 °C -1.5 °C 1029.3 hPa SW 11.3 km/h 12.9 km/h 92 % 0.0 mm
16:37 -0.4 °C -1.5 °C 1029.3 hPa SW 8.0 km/h 12.9 km/h 92 % 0.0 mm
16:42 -0.4 °C -1.5 °C 1029.3 hPa SW 8.0 km/h 14.5 km/h 92 % 0.0 mm
16:47 -0.4 °C -1.5 °C 1029.3 hPa WSW 8.0 km/h 14.5 km/h 92 % 0.0 mm
16:52 -0.4 °C -1.4 °C 1029.7 hPa SSW 3.2 km/h 14.5 km/h 93 % 0.0 mm
16:57 -0.3 °C -1.3 °C 1029.7 hPa SW 3.2 km/h 12.9 km/h 93 % 0.0 mm
17:02 -0.4 °C -1.4 °C 1029.7 hPa SW 8.0 km/h 12.9 km/h 93 % 0.0 mm
17:12 -0.3 °C -1.3 °C 1029.7 hPa SW 4.8 km/h 12.9 km/h 93 % 0.0 mm
17:17 -0.3 °C -1.3 °C 1029.7 hPa WSW 9.7 km/h 12.9 km/h 93 % 0.0 mm
17:22 -0.3 °C -1.3 °C 1029.7 hPa SW 8.0 km/h 12.9 km/h 93 % 0.0 mm
17:27 -0.3 °C -1.4 °C 1029.7 hPa SW 4.8 km/h 12.9 km/h 92 % 0.0 mm
17:32 -0.2 °C -1.2 °C 1029.7 hPa SSW 8.0 km/h 12.9 km/h 93 % 0.0 mm
17:37 -0.2 °C -1.2 °C 1029.7 hPa SSW 3.2 km/h 12.9 km/h 93 % 0.0 mm
17:42 -0.2 °C -1.2 °C 1029.7 hPa SW 6.4 km/h 9.7 km/h 93 % 0.0 mm
17:52 -0.2 °C -1.2 °C 1030.0 hPa SW 3.2 km/h 8.0 km/h 93 % 0.0 mm
17:57 -0.2 °C -1.2 °C 1030.0 hPa WSW 8.0 km/h 8.0 km/h 93 % 0.0 mm
18:02 -0.2 °C -1.2 °C 1030.0 hPa SSW 3.2 km/h 8.0 km/h 93 % 0.0 mm
18:12 -0.2 °C -1.0 °C 1030.0 hPa SW 6.4 km/h 8.0 km/h 94 % 0.0 mm
18:17 -0.2 °C -1.0 °C 1030.0 hPa SSW 3.2 km/h 8.0 km/h 94 % 0.0 mm
18:22 -0.2 °C -1.0 °C 1030.0 hPa SSW 1.6 km/h 8.0 km/h 94 % 0.0 mm
18:32 -0.2 °C -0.9 °C 1030.0 hPa SSW 1.6 km/h 6.4 km/h 95 % 0.0 mm
18:42 -0.2 °C -0.9 °C 1030.4 hPa SW 3.2 km/h 6.4 km/h 95 % 0.0 mm
18:47 -0.2 °C -0.9 °C 1030.4 hPa SSW 1.6 km/h 6.4 km/h 95 % 0.0 mm
18:52 -0.2 °C -0.9 °C 1030.4 hPa SW 3.2 km/h 6.4 km/h 95 % 0.0 mm
19:02 -0.2 °C -0.8 °C 1030.4 hPa SSW 3.2 km/h 6.4 km/h 96 % 0.0 mm
19:07 -0.2 °C -0.8 °C 1030.4 hPa SW 4.8 km/h 8.0 km/h 96 % 0.0 mm
19:12 -0.1 °C -0.7 °C 1030.4 hPa SW 1.6 km/h 8.0 km/h 96 % 0.0 mm
19:17 -0.1 °C -0.7 °C 1030.4 hPa SW 1.6 km/h 8.0 km/h 96 % 0.0 mm
19:22 -0.1 °C -0.7 °C 1030.4 hPa SW 4.8 km/h 8.0 km/h 96 % 0.0 mm
19:27 -0.1 °C -0.7 °C 1030.4 hPa South 4.8 km/h 9.7 km/h 96 % 0.0 mm
19:32 -0.1 °C -0.7 °C 1030.4 hPa SW 4.8 km/h 9.7 km/h 96 % 0.0 mm
19:42 -0.1 °C -0.7 °C 1030.4 hPa SSW 3.2 km/h 8.0 km/h 96 % 0.0 mm
19:47 0.0 °C -0.6 °C 1030.4 hPa SW 3.2 km/h 8.0 km/h 96 % 0.0 mm
19:57 0.1 °C -0.5 °C 1030.4 hPa SSW 4.8 km/h 8.0 km/h 96 % 0.0 mm
20:02 0.1 °C -0.5 °C 1030.4 hPa SW 1.6 km/h 8.0 km/h 96 % 0.0 mm
20:07 0.1 °C -0.5 °C 1030.4 hPa SW 4.8 km/h 6.4 km/h 96 % 0.0 mm
20:12 0.1 °C -0.5 °C 1030.4 hPa SW 4.8 km/h 6.4 km/h 96 % 0.0 mm
20:17 0.2 °C -0.4 °C 1030.7 hPa SSW 1.6 km/h 6.4 km/h 96 % 0.0 mm
20:22 0.2 °C -0.4 °C 1030.7 hPa SSW 1.6 km/h 6.4 km/h 96 % 0.0 mm
20:27 0.2 °C -0.4 °C 1030.4 hPa SSW 1.6 km/h 6.4 km/h 96 % 0.0 mm
20:32 0.2 °C -0.4 °C 1030.4 hPa SW 3.2 km/h 4.8 km/h 96 % 0.0 mm
20:37 0.2 °C -0.4 °C 1030.4 hPa South 3.2 km/h 4.8 km/h 96 % 0.0 mm
20:42 0.2 °C -0.2 °C 1030.4 hPa SW 6.4 km/h 9.7 km/h 97 % 0.0 mm
20:47 0.3 °C -0.1 °C 1030.4 hPa SSW 3.2 km/h 11.3 km/h 97 % 0.0 mm
20:57 0.3 °C -0.1 °C 1030.4 hPa Calm   11.3 km/h 97 % 0.0 mm
21:02 0.3 °C -0.1 °C 1030.4 hPa SW 1.6 km/h 9.7 km/h 97 % 0.0 mm
21:07 0.3 °C -0.1 °C 1030.4 hPa SSE 3.2 km/h 9.7 km/h 97 % 0.0 mm
21:17 0.4 °C 0.0 °C 1030.4 hPa SW 1.6 km/h 6.4 km/h 97 % 0.0 mm
21:22 0.4 °C 0.0 °C 1030.4 hPa WSW 3.2 km/h 6.4 km/h 97 % 0.0 mm
21:27 0.4 °C 0.0 °C 1030.4 hPa SSW 1.6 km/h 6.4 km/h 97 % 0.0 mm
21:32 0.4 °C 0.0 °C 1030.7 hPa SW 3.2 km/h 6.4 km/h 97 % 0.0 mm
21:37 0.4 °C 0.0 °C 1030.7 hPa SSW 3.2 km/h 6.4 km/h 97 % 0.0 mm
21:47 0.5 °C 0.1 °C 1030.7 hPa SW 3.2 km/h 9.7 km/h 97 % 0.0 mm
21:52 0.5 °C 0.1 °C 1030.7 hPa SW 4.8 km/h 9.7 km/h 97 % 0.0 mm
21:57 0.6 °C 0.2 °C 1030.7 hPa SW 3.2 km/h 9.7 km/h 97 % 0.0 mm
22:02 0.6 °C 0.2 °C 1030.7 hPa SW 3.2 km/h 8.0 km/h 97 % 0.0 mm
22:07 0.6 °C 0.2 °C 1030.7 hPa SW 1.6 km/h 8.0 km/h 97 % 0.0 mm
22:12 0.6 °C 0.2 °C 1030.7 hPa SW 3.2 km/h 6.4 km/h 97 % 0.0 mm
22:17 0.6 °C 0.2 °C 1030.7 hPa Calm   6.4 km/h 97 % 0.0 mm
22:22 0.7 °C 0.3 °C 1030.7 hPa Calm   6.4 km/h 97 % 0.0 mm
22:27 0.7 °C 0.3 °C 1030.7 hPa SW 1.6 km/h 4.8 km/h 97 % 0.0 mm
22:32 0.7 °C 0.3 °C 1031.0 hPa WSW 1.6 km/h 3.2 km/h 97 % 0.0 mm
22:37 0.7 °C 0.3 °C 1031.0 hPa Calm   3.2 km/h 97 % 0.0 mm
22:42 0.8 °C 0.4 °C 1031.0 hPa Calm   4.8 km/h 97 % 0.0 mm
22:47 0.8 °C 0.4 °C 1031.0 hPa WNW 6.4 km/h 6.4 km/h 97 % 0.0 mm
22:52 0.9 °C 0.5 °C 1031.0 hPa SW 1.6 km/h 8.0 km/h 97 % 0.0 mm
22:57 0.9 °C 0.5 °C 1031.0 hPa South 1.6 km/h 8.0 km/h 97 % 0.0 mm
23:02 0.9 °C 0.5 °C 1031.0 hPa South 1.6 km/h 8.0 km/h 97 % 0.0 mm
23:12 1.0 °C 0.6 °C 1031.0 hPa Calm   4.8 km/h 97 % 0.0 mm
23:17 1.0 °C 0.6 °C 1031.4 hPa SW 1.6 km/h 4.8 km/h 97 % 0.0 mm
23:22 1.1 °C 0.7 °C 1031.4 hPa SW 1.6 km/h 4.8 km/h 97 % 0.0 mm
23:32 1.1 °C 0.7 °C 1031.4 hPa SW 1.6 km/h 4.8 km/h 97 % 0.0 mm
23:37 1.1 °C 0.7 °C 1031.4 hPa SW 1.6 km/h 4.8 km/h 97 % 0.0 mm
23:42 1.2 °C 0.8 °C 1031.4 hPa WSW 4.8 km/h 8.0 km/h 97 % 0.0 mm
23:47 1.2 °C 0.8 °C 1031.4 hPa Calm   8.0 km/h 97 % 0.0 mm
23:52 1.2 °C 0.8 °C 1031.4 hPa Calm   8.0 km/h 97 % 0.0 mm
23:57 1.3 °C 0.9 °C 1031.4 hPa Calm   8.0 km/h 97 % 0.0 mm
Meteo18
Compliments of Weather Underground - 4 mb

Script developed by  Jim McMurry - jmcmurry@mwt.net Adapted for the template by  Wim van der Kuil - Leuven-Template.eu

You find our weather info also at:

European Weather Network

Weather Underground

Equipment we use:

Weather-station
Davis Vue

Weather-program
Meteohub

Weather-server
Raspberry PI 2 B+

Provider
1 and 1

Davis Vue

Meteohub

Raspberry PI 2 B+

1 and 1